Location: Newark
(48.5667°N, 12.8167°E)
Time: 09:06:24
(UTC+00:00)

CAS-4B - Visible Passes

Search period start: 14 November 2019 00:00
Search period end: 24 November 2019 00:00
Orbit: 530 x 544 km, 43.0° (Epoch: 13 November)

Date Brightness Start Highest point End Pass type
(mag) Time Alt. Az. Time Alt. Az. Time Alt. Az.
18 Nov ? 05:46:00 10° S 05:47:39 12° SSE 05:49:17 10° SE visible
19 Nov ? 05:35:04 10° S 05:37:21 15° SSE 05:39:38 10° ESE visible
20 Nov ? 05:24:22 10° SSW 05:27:04 17° SSE 05:29:46 10° ESE visible
21 Nov ? 05:13:47 10° SSW 05:16:48 20° SSE 05:19:48 10° ESE visible
22 Nov ? 05:03:18 10° SSW 05:06:32 23° SSE 05:09:46 10° ESE visible
23 Nov ? 04:52:52 10° SW 04:56:17 25° SSE 04:59:41 10° ESE visible
